Погода в Шепетовке

Погода в Шепетовке : погода сейчас, прогноз погоды и архив. Всё, что Вы хотите узнать о погоде в Шепетовке!

Хотите узнать прогноз погоды в Шепетовке? Тогда Вам сюда: Погода в Шепетовке

Поиск расширенной информации на нашем сайте:

Другие новости

Новости СМИ2

Главная страница сайта

Новости сайта

03.07.2017

Напоминаем, что на нашем специализированном сайте Метеоцентр.Азия вы можете получить высокодетализированные автоматические прогнозы погоды по пунктам России, СНГ и мира в авиационном формате (включающие направление и скорость ветра, видимость, явления погоды, количество и форму облачности, нижнюю и верхнюю границу облачности).

Рекомендуем: татарское изготовление кухонь по цене интернет магазина

Погода в Шепетовке - сегодня

Время (UTC), дата Ветер
(°,м/с) 
Видим.   Явления Облачность Т
(°С)
Тd
(°С)
f(%) Тe
(°С)
Pmin
(гПа)
dP
(гПа)
Po
(мм)
O2
(г/м3)
Тmin Tmax R s Состояние
почвы
21 21.06.18 170 (Ю) н/о    ясно 
+19.7 +18.4 92 +37  1009.4  -1.4  733  271           
00 22.06.18 180 (Ю) н/о    4/0 средняя 
[Ac trans]
+19.7 +18.1 90 +36  1008.1  -1.2  732  271           
03 22.06.18 220 (ЮЗ) 10 км    6/4 600 м кучево-дожд., средняя 
[Cb cap|Ac trans]
+20 +18.4 91 +36  1007.7  -0.4  732  270           
06 22.06.18 330 (СЗ) 10 км    9/6 700 м средняя 
[Sc|Ac und]
+17.1 +13.4 79 +24  1011  2.8  734  276  +17.1         
09 22.06.18 340 (С) 4000 м  слаб. ливневой дождь  9/6 600 м кучево-дожд., средняя, верхняя 
[Cb cap|Ac trans|Ci ing]
+14.2 +12.6 90 +20  1013.2  1.8  735  279           
12 22.06.18 340 (С) 10 км  {ливн. осадки}  8/6 600 м средняя, верхняя 
[Sc|Ac trans|Ci ing]
+16.1 +10.3 68 +18  1013  735  278      0.7     
15 22.06.18 340 (С) 10 км    8/0 средняя 
[Ac As]
+16.4 +8.1 58 +17  1013.5  0.5  736  278           
18 22.06.18 тихо ()   10 км    8/0 средняя, верхняя 
[Ac As|Cs]
+15.6 +9.3 66 +16  1012.8  -0.7  735  279    +17.5  0.7     
21 22.06.18 350 (С) 4000 м  слаб. ливневой дождь  8/4 600 м кучево-дожд., средняя 
[Cb cap|Ac trans]
+13.8 +12 89 +18  1013  735  280           
00 23.06.18 тихо ()   н/о  {ливн. осадки}  9/4 600 м средняя 
[Sc|Ac trans]
+11.8 +9.9 88 +13  1013.3  735  282      0.0     
03 23.06.18 310 (СЗ) 4000 м  слаб. ливневой дождь  10/10 500 м кучево-дожд. 
[Cb cap]
+11 +10.4 96 +13  1012.5  -0.8  735  283           
06 23.06.18 330 (СЗ) 4000 м  слаб. ливневой дождь  10/8 300 м кучево-дожд., средняя 
[Cb cap|Ac trans]
+9.5 +8.9 96 +10  1013.7  735  285  +9.5       
09 23.06.18 340 (С) 4000 м  слаб. ливневой дождь  10/10 540 м кучево-дожд. 
[Cb cap]
+10.4 +9.8 96 +11  1013.8  0.2  736  284           
12 23.06.18 320 (СЗ) 10 км  в посл. час ливневой дождь  9/9 540 м кучево-дожд. 
[Cb cap]
+10.8 +10 95 +13  1013.4  -0.4  735  283           
15 23.06.18 300 (СЗ) 4000 м  слаб. ливневой дождь  10/10 540 м кучево-дожд. 
[Cb cap]
+11 +10.4 96 +13  1013.5  0.2  735  283           
18 23.06.18 290 (З) 4000 м  слаб. ливневой дождь  10/10 300 м кучево-дожд. 
[Cb cap]
+10.2 +9.6 96 +12  1014  0.3  736  284    +11.2  12     
21 23.06.18 300 (СЗ) 4000 м  дымка{ливн. осадки}  8/8 630 м 
[Sc]
+9.9 +9.5 97 +12  1014.2  0.2  736  284           
00 24.06.18 290 (З) 4000 м  дымка{ливн. осадки}  8/5 600 м средняя 
[Sc|Ac trans]
+8.3 +7.9 97 +9  1014.4  736  286      0.8     
03 24.06.18 290 (З) 4000 м  дымка  10/10 660 м 
[Sc]
+9.3 +8.9 97 +10  1014.3  736  285           
06 24.06.18 300 (СЗ) 4000 м  дымка  9/9 600 м 
[Sc]
+11 +10.6 97 +14  1014.6  0.5  736  283  +7.2    0.8     
09 24.06.18 230 (ЮЗ) 10 км    8/6 600 м средняя 
[Sc|Ac trans]
+13.2 +9.3 77 +15  1015.2  0.8  737  282           
12 24.06.18 280 (З) 10 км    8/4 600 м средняя 
[Cu med, cong|Ac trans]
+16.7 +8.4 58 +18  1014.8  737  278           
15 24.06.18 260 (З) 10 км  в посл. час ливневой дождь  6/4 600 м кучево-дожд., средняя 
[Cb cap|Ac trans]
+15.4 +9.7 69 +18  1015.2  0.3  737  279           
18 24.06.18 230 (ЮЗ) 10 км  {ливн. осадки}  3/3 600 м 
[Sc]
+13.2 +9.7 79 +15  1015.7  0.2  737  282    +18.8  0.0     
21 24.06.18 180 (Ю) н/о    ясно 
+10.7 +9.3 91 +12  1016.6  0.6  738  284           
Время (UTC), дата Ветер
(°,м/с) 
Видим.   Явления Облачность Т
(°С)
Тd
(°С)
f(%) Тe
(°С)
Pmin
(гПа)
dP
(гПа)
Po
(мм)
O2
(г/м3)
Тmin Tmax R s Состояние
почвы

Для получения пояснительной информации подведите курсор к названию столбца.

ПОГОДА в Шепетовке - архив

Всё, что Вы хотите узнать о погоде в Шепетовке - удобно и подробно!

Выберите нужную дату (начиная с 1 января 2015* года) и нажмите кнопку "Найти".
Будут отображены архивные сводки погоды по пункту Шепетовка, начиная с указанной даты.


Отображать данные в формате CSV (для использования в таблицах Excel)


Внимание! Наш архив погоды предназначен исключительно для личного некоммерческого использования в познавательных целях. Если Вам необходимы официальные справки о состоянии погоды (для производственных, юридических, коммерческих и т.п. целей), обращайтесь в органы Росгидромета.

*Примечание: данная дата относится к архиву по метеостанциям СССР (Россия, СНГ, Балтия).
Архив по метеостанциям Зарубежной Европы и Азии (кроме Китая) хранится 10 дней, по другим регионам земного шара (Китай, Африка, Америка, Австралия, Океания) - 1 день.

Шепетовка - район местоположения метеостанции


Название, широта, долгота, высота метеостанции:
Шепетовка 50.2°ш. 27°д. 278 м над ур. моря [Украина]

Дополнительная информация

В oтличие oт бoльшинства пoгoдных сайтoв мы публикуем пoдрoбную метеoинфoрмацию в детальнoм прoфессиoнальнoм фoрмате.

Характеристики температуры и влажнoсти вoздуха измеряются на высoте 2 м в тени вдали oт зданий и деревьев.
Скoрoсть ветра измеряется на высoте 10 м (на урoвне рoста челoвека скoрoсть ветра ниже в 1.5-2 раза). Если метеoстанция нахoдится в гoрoде или в лесу, тo скoрoсть ветра занижена на 2-4 м/с пo сравнению с oткрытым местoм. Скoрoсть ветра над акватoриями крупных рек и oзёр, а также на вершинах хoлмoв на 2-5 м/с выше, чем в oбычных услoвиях.
Атмoсфернoе давление в разных тoчках местнoсти мoжет значительнo oтличаться oт давления на метеoстанции, в зависимoсти oт услoвий рельефа (при пoдъёме на 10 м давление пoнижается примернo на 1 мм рт.ст.).